Race Results for
Santa Ynez Valley Classic US Cup Triple Crown
Los Olivos, CA
(Event Information)
Cross Country on 04/14/2013

Note: Ranking points are NOT upgrade points. An explanation of ranking points can be found here.


Men - CAT 3 - CLYDESDALES - 1-34

 Place Points NameCity, StateTime USAC #BibTeam
1OSCAR GUTIERREZ   1:09:51.33  594 RED ZONE RACING
2JUAN CUEVAS   1:11:29.23  411 

Men - CAT 3 - JUNIOR - 15-18

 Place Points NameCity, StateTime USAC #BibTeam
1SHAUN CHRISTIE   1:31:34.68  1155 

Men - CAT 3 - SENIOR - 19-24

 Place Points NameCity, StateTime USAC #BibTeam
1MATT WINSLOW   1:00:38.17  1159 DOC LESTER
2NICOLAS SLOATMAN   1:47:28.03  1166 

Men - CAT 3 - SENIOR - 25-29

 Place Points NameCity, StateTime USAC #BibTeam
1JOSH BLACKSMITH   1:01:43.07  1126 
2552.50DAVID KEAYS   Santa Barbara, CA1:05:04.50 393383  1212 
3565.00DARRYL MCCLANAHAN   Santa Barbara, CA1:06:31.19 306734  530 
4TRISTEN BORGESON   1:07:11.59  917 
5590.00AVERY JAMES   Antioch Ca1:12:54.17 396972  1127 

Men - CAT 3 - MASTER - 30-34

 Place Points NameCity, StateTime USAC #BibTeam
1JORGE MOTA   1:00:38.59  88 RED ZONE RACING
2545.56NICOLAS MANARY   Highland1:00:46.53 392164  383 DONS BIKES
3551.12ALAN CARR   Newbury Park, CA1:01:26.00 395995  143 SANTA MONICA MTN CYC
4JOSE ISABELES   1:02:11.72  595 RED ZONE RACING
5562.24MATT BOONE   Fontana, CA1:04:18.29 369063  92 RED ZONE RACING
6567.80IGNACIO JIMENEZ   Brea , CA1:05:30.28 355282  93 RED ZONE RACING
7PAUL BELMONT   1:06:50.78  1182 
8578.92KARL RITTGER   Altadena, CA1:08:25.52 394329  1146 DARK SNOW
9CRAIG MATTHEWS   1:12:29.01  1222 
10590.04Hristo Hristov   Santa Barbara1:29:43.25 418906  699 

Men - CAT 3 - CLYDESDALES - 35+

 Place Points NameCity, StateTime USAC #BibTeam
1MARTIN LEIKARTS   1:05:19.37  477 BIKSES NOST
2556.67TIM CREEL   Paso Robles, CA1:17:30.93 8121  1133 ICCC/IRONCLA
3RANDY SMITH   1:18:24.77  908 HAYES BICYCLE GROUP/
4590.01SCOTT HYDE   Big Bear Cityb, CA1:41:29.79 394738  193 BEAR VALLEY BIKES

Men - CAT 3 - MASTER - 35-39

 Place Points NameCity, StateTime USAC #BibTeam
1540.00GARY B GARMAN   Oak Park, CA0:58:49.70 388931  188 TRIPLE THREAT
2544.55HERB SIROTA   Simi Valley0:58:50.32 391991  181 TRIPLE THREAT
3BRIAN HUNOT   1:00:56.05  1071 
4PEDRO GARCIA   1:02:55.77  465 FOUR FIVE RACING
5ERIC SODERIN   1:06:35.43  1130 
6BRANDON RODGERS   1:07:07.99  1131 
7LUIS PEREZ   1:10:18.85  970 RED ZONE RACING
8SANTIAGO MELCHOR   1:11:09.22  313 
9ENRIQUE HERNANDEZ   1:11:44.30  412 
10CARLOS OLMOS   1:15:00.05  596 RED ZONE RACING
11ABISAI GONZALEZ   1:20:16.70  1170 
12HENRY CABILLON   1:21:53.42  91 RED ZONE RACING

Men - CAT 3 - MASTER - 40-44

 Place Points NameCity, StateTime USAC #BibTeam
1540.00CHAD STANLEY   Los Angeles0:57:54.05 399760  1135 
2545.00BRYANT LIKES   Simi Valley, CA0:59:09.04 345896  176 TRIPLE THREAT
3550.00ROBERT DONOVAN   Los Angeles1:00:59.48 293496  926 KNAPPS CYCLERY
4555.00LEE JETTON   Salinas1:02:01.28 367729  1149 BOBCAT BICYCLES/SPEC
5560.00JACK CHOU   Ontario, CA1:03:13.26 167832  876 ROKFORM/ROCKnROAD
6565.00STEVE MINNE   Stanford, CA1:03:23.23 24556  112 HOPE RANCH RACING
7BOW LEMP   1:03:59.56  45 ROKFORM/ROCKnROAD
8SAL MARTINEZ   1:06:06.02  90 RED ZONE RACING
9580.00MARC AMESSE   Los Osos, CA1:10:59.94 221995  1120 
10SETH HATFIELD   1:11:03.61  1204 
11590.00AARON ATKINS   Memphis, TN1:13:24.17 124815  396 DONS BIKES

Men - CAT 3 - MASTER - 45-49

 Place Points NameCity, StateTime USAC #BibTeam
1540.00KEVIN BEACH   Fullerton, CA1:01:20.64 235195  273 AMERICAN INTERBAC CA
2545.56Richard Ramsey   Laguna Beach, CA1:03:18.86 29111  467 ROKFORM/ROCKnROAD
3DALIUS GEDGANDAS   1:03:46.90  1186 
4556.68DARIUS KHAYAT   San Marcos, CA1:05:55.22 276824  607 
5DARIUS JATULIS   1:06:36.31  1185 
6567.80Glenn Morimoto   Torrance, CA1:07:40.36 389172  640 PENNINSULA CYCLING C
7573.36DOVAS ZAUNIUS   Santa Barbara, CA1:07:53.58 355588  1134 Echelon Santa Barbara
8578.92Scott Brovsky   Temecula, CA1:07:54.12 82127  1227 
9JOE KRIVDA   1:08:56.84  139 
10590.04SHAUN CONDON   Santa Barbara, CA1:10:30.45 7533  1219 S.C.RACING

Men - CAT 3 - MASTER - 50-54

 Place Points NameCity, StateTime USAC #BibTeam
1540.00JOSH WOLFF   Laguna Beach, CA1:00:50.47 375356  142 ROKFORM/ROCKnROAD
2545.00BOBBY WOODS   Agoura Hills, CA1:01:07.76 381654  184 TRIPLE THREAT
3STEVEN PARKER   1:03:14.07  1147 
4JOHN HUNT   1:03:27.06  40 
5560.00RON STANKOSKI   Santa Barbara, CA1:05:01.63 305356  1199 ECHELON SANTA BARBAR
6565.00JOHN SWANSTROM   Studio City, CA1:06:37.03 114894  155 IBP
7DOUG FOILES   1:09:41.01  933 
8CARTER ATKINSON   1:10:01.21  1123 
9580.00MARK THOME   Missoula, MT1:17:47.63 173433  138 BACKBONE
10585.00KEVIN CONLEY   Holton, MI1:19:36.68 370668  1203 
11KEVIN WOLFGRAM   1:30:49.35  1139 

Men - CAT 3 - MASTER - 55+

 Place Points NameCity, StateTime USAC #BibTeam
1540.00Jim Busby   Simi Valley, CA1:05:53.61 404294  930 
2548.33THOMAS CASSIDY   Sierra Madre, CA1:09:20.63 254091  256 PAA/REMAX
3556.66RANDY BANALES   Riversideriverside, CA1:09:46.87 349234  583 ROKFORM/ROCKnROAD
4564.99RICK POLETO   Simi Valley, CA1:17:46.15 403676  1082 OUTER CIRCLE RACING
5BRUCE DOLGIN   1:27:43.72  33 TEAM APE
6DAVID HESS   1:31:49.96  1143 
7GREG JACKSON   1:34:45.81  1099 
DNFKEN RIDLEY   Malibu, CADNF 29830  1183 BEAR VALLEY BIKES
DNFLARRY RUSSELL   Chula Vista, CADNF 216092  195 

Men - CAT 2 - SINGLESPEED

 Place Points NameCity, StateTime USAC #BibTeam
1540.00K.C. MILLER   Westlake, CA1:57:34.59 136756  234 FAST FRIDAY
2547.14LANCE LASPINA   Agoura Hills, CA2:05:19.10 388938  175 TRIPLE THREAT
3554.28Joey Dolowy III   Northridge, CA2:05:59.10 309834  1176 OUTER CIRCLE
4561.42SCOTT STEINMAUS   San Luis Obispo, CA2:06:06.08 162898  1208 
5568.56AL GARZA   Simi Valley, CA2:08:36.74 12903  177 TRIPLE THREAT
6575.70ANDRE CAMPOS   Orange, CA2:11:57.64 389687  609 SOCAL TRAIL RIDERS
7ANTONIO NAVARRETE   2:16:07.70  598 RED ZONE RACING
8589.98CHEYNE MCKEEVER   Huntington Beach , CA2:32:34.25 262304  1207 OUT-SPOKE-N RACING

Men - CAT 2 - JUNIOR - 1-14

 Place Points NameCity, StateTime USAC #BibTeam
1487.56RICHARD HOLEC   Murrieta, CA0:54:53.44 393803  483 
2513.17NATHAN HICKEY   Monrovia, CA1:00:50.59 319320  66 PAA/REMAX
3KASEY PEREZ   1:07:43.01  135 RED ZONE RACING
4564.39CHRISTOPHER POLVOORDE   Hemet, CA1:08:41.36 383022  164 CASINO BIKES
5590.00JONAH SANCHEZ   Winchester, CA1:12:52.51 306696  570 INTERNATIONAL CHRIST

Men - CAT 2 - JUNIOR - 15-16

 Place Points NameCity, StateTime USAC #BibTeam
1EVAN CHRISTENSON-MEYER   El Cajon, CA0:57:19.32 400214  351 ZUMWALTS CYCLERY
2NATHAN JACKSON   Sunland, CA1:01:48.94 389028  173 TRIPLE THREAT CYCLIN

Men - CAT 2 - SENIOR - 19-24

 Place Points NameCity, StateTime USAC #BibTeam
1540.00SPENCER RATHKAMP   Stevenson Ranch, CA1:50:19.31 351922  416 GAERNE
2TRAVIS BRIGHT   1:54:32.01  438 NEWBURY PARK BIKE SH
3JORDAN STEYER   1:55:28.78  309 RELAMPAGO RACING/THE
4577.50KYLE CONLEY   Woodland Hills1:59:08.98 401586  851 
5590.00DUSTIN DRAPER   Ventura, CA2:09:00.30 285332  1220 METALMTN
DNFNIK BALES   Santa Clarita, CADNF 340426  1172 
DNFMATT SMITH   DNF  105 BAGHOUSE/ROCKnROAD

Men - CAT 2 - SENIOR - 25-29

 Place Points NameCity, StateTime USAC #BibTeam
1539.88JASON DENNEY   Lake Forest, CA1:50:18.10 293640  1201 TWO WHEELS ONE PLANC
2546.18DOUG BARNETT   Newbury Park, CA1:50:22.96 285210  435 MUSCLE MILK/CANNONDA
3552.48TROY TEMPLIN   Burbank, CA1:56:14.30 366547  821 CANNONDALE AMERICAN
4558.78TIMOTHY STOWERS   Oxnard, CA2:03:39.30 294763  63 
5KYLE TOMCZAK   2:06:03.34  429 SPIDER MONKEY RACING
6571.38DOUG HERRICK   Temecula, CA2:09:51.18 267902  1213 VILLAGE DIRTBAGS
DNFBENNY BRECK   Santa Ynez, CADNF 319608  826 PWR

Men - CAT 2 - MASTER - 30-34

 Place Points NameCity, StateTime USAC #BibTeam
1MATT ARMSTRONG   1:51:42.48  439 MUSCLE MILK/NP BIKE
2540.39COREY LUCE   Spreckels, CA1:52:15.28 112720  43 PLATINUM PERFORMANCE
3545.90JOSHUA WEST   Westminster, CA1:54:12.34 396480  1091 BIKE RELIGION
4551.41CHARLES HARPER   Billings, MT1:57:37.27 217535  246 SANTA MONICA CYCLERY
5556.92BENJAMIN GOYETTE   Montreal Qc1:58:05.51 379451  286 
6JEREMY MARZEC   2:01:15.46  1086 SPOKE N WHEEL
7KEVIN SUMMERS   2:01:35.91  1202 
8BRENTON CARNELIUS   2:13:10.66  407 
9578.96ROEL PEREZ   Fullerton2:14:35.77 245657  86 RED ZONE RACING
10PETER WILSON   2:20:38.12  861 
11589.98JOHN SLOATMAN   Oxnard, CA2:26:29.30 392823  1129 METAL MTN
DNFPRIIT UMBSAAR   DNF  323 BEAR VALLEY BIKES

Men - CAT 2 - CLYDESDALES - 35+

 Place Points NameCity, StateTime USAC #BibTeam
1523.24DEREK LAURITZEN   San Luis Obispo, CA2:00:31.56 294022  1196 
2DAVE ROTONDO   2:07:12.55  1180 BICYCLE NERD
3ROGELIO ZARAGOZA   2:11:56.49  599 RED ZONE RACING
4543.28MICHAEL DULIN   Rancho Santa Margarita, CA2:13:52.89 189906  667 THE CYCLERY BIKE SHO
5MIKE GREEN   2:14:35.54  797 
6556.64MIKE ABBOTT   Santa Barbara, CA2:14:43.66 252058  858 Polli Veloce
7563.32RICH FERSCH   La Habra, CA2:23:47.22 181198  59 LA HABRE CYCLERY
8HUMBERTO ZAMUDIO   2:25:51.25  449 LIKE LAST NIGHT
9PAUL AMODEI   2:26:57.86  1193 COATES CYCLERY
10JEFF DOOLEY   2:31:54.05  1192 
11MARK OLSEN   2:57:51.87  1216 OAKLEY

Men - CAT 2 - MASTER - 35-39

 Place Points NameCity, StateTime USAC #BibTeam
1529.45CESAR MORA   Lakeside1:49:10.57 371461  1191 VELOZ
2535.50CHRIS LAYTON   Newbury Park, CA1:54:19.61 366383  31 MUSCLE MILK
3541.55SAM SWEETLAND   Solvang, CA1:56:33.31 98276  865 
4547.60TROLIS NIEBLA   Lancaster, CA1:56:36.24 291329  1122 SANTA CLARITA VELO
5553.65JAMES BENDER   Seattle, WA1:57:11.73 122052  1078 
6559.70KRISTOFER STEWART   Riverside, CA1:57:18.40 397605  485 
7565.75MICHAEL DO COUTO   Salinas, CA2:10:52.32 366275  1150 MORCA/CONCEPT CYCLER
8CHRIS VERSTEEGH   2:10:59.14  401 HONDA CYCLING
9577.85BRIAN BERMUDES   Santa Barbara, CA2:12:00.78 239183  206 ARCALIS TEST TEAM
10583.90ISAAC FACUNDO   Loma Linda, CA2:16:13.23 70893  199 
11589.95ALAN KADLEC   Santa Barbara, CA2:22:47.82 332416  58 TEAM POLLI VELOCE
DNFRICK ANDREWS   Lancaster, CADNF 299324  1148 SANTA CLARITA VELO
DNFCOREY NEUER   Camarillo, CADNF 25935  591 MUSCLE MILK
DNFGENO MEZA   DNF  107 BAGHOUSE/ROCKnROAD

Men - CAT 2 - MASTER - 40-44

 Place Points NameCity, StateTime USAC #BibTeam
1534.04GARETH ROBERTS   Thousand Oaks, CA1:44:48.00 30085  186 TRIPLE THREAT
2537.33BILL SAURO   La Canada, CA1:45:55.56 396419  56 TAMA TRADING COMPANY
3KARL LOWRY   1:51:24.89  400 ROKFORM/ROCKnROAD
4543.91KIRK BAUSCH   Irvine, CA1:53:54.57 99426  347 AUDI/FELT
5547.20DANIEL EITMAN   Irvine, CA1:54:41.33 76629  44 KASEL CYCLING-JAX BI
6550.49JOHN MOISAN   Solvang, CA1:57:43.79 569  1223 SANTA YNEZ CYCLING
7TEDDY MCTOLDRIDGE   2:00:35.97  1215 OPEN AIR BICYCLES
8557.07DOUGLAS HULETT   Arenas Valley, NM2:02:01.39 91074  1200 SGBC- Stump Grinder Production
9MAX AHARTZ   2:03:56.07  875 MCGHEES BIKE SHOP
10563.65MIGUEL SUTTER   Burbank, CA2:06:50.10 166968  420 CELO PACIFIC
11566.94CHAD RIVETTI   Westlake Village, CA2:07:50.43 212335  652 SERIOUS CYCLING
12570.23ERICK ALDRICH   Oceanside, CA2:09:25.35 371460  130 SUPER HAPPY FUN TIME
13573.52RYAN CAMPBELL   Santa Clarita, CA2:10:54.22 78437  1188 
14576.81BILL GIDDENS   Lakewood, CA2:12:33.13 173915  82 SC VELO
15580.10CHRIS SCHAPER   Los Angeles, CA2:19:00.87 271294  441 PAA/REMAX
16583.39PAUL SAMOSKY   Riverside, CA2:20:41.69 111715  131 MONSTER MEDIA CLUB
17CHRIS SCOTT   2:22:20.06  134 
18589.97OMAR ALMAGUER   Whittier, CA2:32:56.04 220919  87 RED ZONE RACING
DNFKURT ROOD   DNF  446 BAGHOUSE/ROCKnROAD
DNFSCOTT HARDY   Oak Park, CADNF 389352  174 TRIPLE THREAT

Men - CAT 2 - MASTER - 45-49

 Place Points NameCity, StateTime USAC #BibTeam
1511.15MIKE GIROUX   Agoura Hills, CA1:51:23.87 387214  169 TRIPLE THREAT
2RENE HERRERA   1:52:57.95  1187 ACME RACING
3523.29JOHN MEISSNER   Hidden Hills, CA1:55:26.43 163191  745 OCR
4529.36JOSEPH KEAYS   Thousand Oaks, CA1:57:01.87 388952  145 XXX TRIPLE THREAT
5535.43WADE ARNOLD   Lakewood, CA1:59:17.02 192502  81 SC VELO
6541.50MICHAEL NASCO   Rancho Santa Margarita, CA2:07:04.90 359059  50 ROKFORM/ROCKnROAD
7547.57SCOTT STEMLOCK   Santa Maria, CA2:08:19.80 33996  1226 
8553.64CHRIS BOTTI   Ojai, CA2:08:51.44 4354  1214 BIKES OF OJA
9559.71DOUGLAS MACCREADY   Nipomo, CA2:09:12.65 201660  1124 Rock Solid Cycling
10565.78BILL CUTTLER   Santa Barbara, CA2:09:41.96 188050  819 POLLI VELLOCE
11571.85JOHN M REVELES   Montrose , CA2:12:50.95 223036  625 PLATINUM PERFORMANCE
12577.92IAN JONES   Long Beach, CA2:22:10.04 365019  35 
13583.99ROBERT BLUE   Woodland Hills, CA2:25:17.68 110183  440 
14590.06SEAN HICKEY   Monrovia2:45:38.92 394966  67 PAA/REMAX
DNFCHAD SMART   Corona, CADNF 291314  106 BAGHOUSE/ROCKnROAD

Men - CAT 2 - MASTER - 50-54

 Place Points NameCity, StateTime USAC #BibTeam
1505.95ROBERT NEARY   Ventura, CA1:55:13.75 49595  1194 METAL MTN
2ERIC WEBSTER   1:56:51.59  390 BICYCLE NERD
3STEVE SOUISA   1:59:42.38  228 SANTA CLARITA VELO
4568.98DAVID CULBERTSON   Newbury Park, CA2:03:03.15 250553  100 PLATINUM PERFORMANCE
5589.99NICK DAVIS   Santa Barbara, CA2:12:33.79 225348  1125 SB CHICKEN RANCH

Men - CAT 2 - MASTER - 55-59

 Place Points NameCity, StateTime USAC #BibTeam
1492.47BILL OUELLETTE   Agoura Hills, CA2:03:53.80 104243  183 TRIPLE THREAT
2503.31MARK LUKE   Goleta, CA2:04:55.70 131303  116 Platinum Performance Cycling Team
3514.15TRACY HRACH   Westlake Village, CA2:07:48.10 183801  178 TRIPLE THREAT
4524.99PETER EATON   Ladera Ranch, CA2:09:48.21 220310  274 ROKFORM/ROCKnROAD
5535.83MARK DOOLEY   Anaheim Hills, CA2:12:16.98 9834  259 ROKFORM/ROCKnROAD
6546.67JAMES REILLY   Redondo Beach, CA2:14:31.35 29477  872 BIKE PALACE/PENINSUL
7ROBERT MAYER   2:15:42.17  1205 
8KEVIN WOLFE   2:20:26.81  1173 OUTER CIRCLE
9579.19BYRON BECK   Santa Barbara, CA2:20:27.44 270680  1179 OPEN AIR BICYLES
10590.03ROBERT DRAPER   Ventura, CA2:21:57.58 367237  452 METAL MOUNTAIN

Men - CAT 2 - MASTER - 60-64

 Place Points NameCity, StateTime USAC #BibTeam
1540.00SCOTT SAMPSON   Newhall, CA2:26:16.06 213711  1132 
2HORACIO RAMIREZ   2:26:40.70  444 BAJA COYOTES
3565.00RICK CURTIS   Santa Barbara, CA2:28:33.37 155368  1190 
4577.50STEVE ENGELGAU   Lake Arrowhead, CA2:39:55.47 263284  122 BEAR VALLEY BIKES
5590.00ED MUNDY   Chino Hills, CA2:47:48.99 198602  125 THE CYCLERY BIKE SHO

Men - CAT 2 - MASTER - 65+

 Place Points NameCity, StateTime USAC #BibTeam
DNFRON WARPACK   Agoura Hills, CADNF 160307  1221 

Men - CAT 1 - SINGLE SPEED

 Place Points NameCity, StateTime USAC #BibTeam
1483.82ALLAN LAFRAMBOISE   Big Bear Lake, CA1:46:55.18 259749  1046 DONS BIKES
2519.21TIMOTHY SPARKS   Moorpark, CA1:48:23.31 250370  98 PLATINUM PERFORMANCE
3554.60CRAIG SISINO   Calabasas, CA2:05:34.61 194529  99 PLATINUM PERFORMANCE
4589.99PATRICK ELDRIDGE   Santa Clarita, CA2:07:46.29 10638  766 ROKFORM/ROCKnROAD

Men - CAT 1 - SENIOR - 19-24

 Place Points NameCity, StateTime USAC #BibTeam
1540.00JETT CHANDLER   Salinas, CA1:40:33.69 356601  1028 DOUG CHANDLER PERFOR
2556.67CODY GREER   Sanger, CA1:51:00.83 309590  160 DOC LESTERS CYCLING
3573.34SCOTT WONG   Palos Verdes Estates, CA1:52:39.24 361361  1036 
4590.01JOHN ACHEY   Clovis, CA1:57:08.07 397002  302 DR LESTERS CYCLING
DNFDILLEN MAURER   Los Angeles, CADNF 317704  62 MONTROSE BIKE SHOP
DNFEVAN ROSSOW   Salinas, CADNF 312832  1138 DON CHAPIN MONTEREY
DNFBRIAN GORDON   Corona, CADNF 308314  102 BAGHOUSE/ROCKnROAD

Men - CAT 1 - SENIOR - 25-29

 Place Points NameCity, StateTime USAC #BibTeam
1458.06BRODIE STRINGER   Danville1:37:57.89 370456  549 TEAM MUSCLE MILK SPE
2474.55STEPHANE ROCH   San Diego, CA1:41:29.62 199861  450 SKILZ/SWAMIS
3491.04JOSE ALFREDO PACHECO   Brea, CA1:41:49.37 376132  55 COATES CYCLERY
4507.53DAVID RIVERA   Bakersfield, CA1:43:13.05 289758  303 
5524.02SETH GILLHAM   Colton, CA1:43:21.57 330590  201 DONS BIKES
6540.51STEVEN FOGT   Riverside, CA1:43:29.66 207109  493 DONS BIKES
7557.00RYAN STEERS   Los Angeles, CA1:46:52.44 288281  626 TOPANGA CREEK BICYCL
8573.49BLAKE ROWAN   San Luis Obispo, CA1:54:38.23 338426  649 SLO Nexus-Gym One
9589.98SYD NEWSOM   Fresno, CA2:01:06.40 258955  1137 DR LESTERS ENERGY GE
DNFCHESTER GILLMORE   Santa Barbara, CADNF 269966  16 PLATINUM PERFORMANCE

Men - CAT 1 - MASTER - 30-34

 Place Points NameCity, StateTime USAC #BibTeam
1420.40GARETH FELDSTEIN   Bakersfield, CA1:39:57.18 240935  30 MUSCLE MILK
2437.80VINCENT OWENS   Fresno, CA1:42:17.96 242560  783 DOC LESTERS CYCLING
3455.20ADAM POYTRESS   Goleta, CA1:45:37.18 260239  17 PLATINUM PERFORMANCE
4472.60NICHOLAS DUCHARME   Lake Forest, CA1:47:49.70 174855  786 SDG/Felt
5490.00ANTHONY TINTELNOT   Edwards, CA1:50:05.74 340236  459 NATURAL DYNAMIX/BIKE
6507.40MICHAEL COCKROFT   Alhambra, CA1:51:16.50 315906  312 
7524.80ARA MOVSESSIAN   Glendale, CA2:00:24.88 210630  481 BACKBONE ADVENTURE R
8TREY JARNO   2:16:18.95  1160 BEAR VALLEY BIKES

Men - CAT 1 - MASTER - 35-39

 Place Points NameCity, StateTime USAC #BibTeam
1413.22MARCO AROCHA   Thousand Oaks, CA1:38:52.86 287924  71 ROKFORM/ROCKnROAD
2439.81STUART GONZALEZ   Riverside, CA1:43:03.81 181200  117 BEAR VALLEY BIKES/PO
3466.40DAVID SHEEK   Huntington Beach, CA1:43:40.63 250444  1031 SDG/Felt pb.Irt
4492.99DAN ACOSTA   Irvine, CA1:49:32.54 392857  46 
5519.58ROBERT SNYDER   San Juan Capistrano, CA1:50:38.57 129745  1209 BACKBONE
6546.17IAN MULLINS   Seattle, WA2:09:24.30 25391  1121 TEAM NW SHO-AIR/RALI
DNFERIC BOSTROM   Newbury Park, CADNF 326206  771 SHO-AIR/CANNONDALE
DNFMATT R. SMITH   San Clemente, CADNF 290790  103 BAGHOUSE/ROCKnROAD

Men - CAT 1 - MASTER - 40-44

 Place Points NameCity, StateTime USAC #BibTeam
1400.37OLIVER HUTCHINSON   Calabasas, CA1:41:50.05 247748  29 MUSCLE MILK/NEWBURY
2424.90NATHAN LLOYD   Los Angeles, CA1:41:57.35 21397  775 FAMILY CYCLING CENTE
3449.43RYAN COX   San Juan Capistrano, CA1:45:34.12 287269  460 LINKED CYCLING
4473.96TODD BOOTH   Santa Barbara, CA1:49:21.95 4249  18 PLATINUM PERFORMANCE
5498.49SCOTT PLATT   Bell Canyon, CA1:51:11.54 183735  170 TRIPLE THREAT
6523.02RYAN DAMATO   Trabuco Canyon, CA1:53:02.81 180119  119 LINKED CYCLING
7547.55NIR TAL   Los Angeles, CA2:00:43.36 200441  769 BIKE IMPROV
8572.08MICHAEL FARKAS   Sandiego, CA2:56:00.45 302153  300 AQUAL AL 2-SDBC

Men - CAT 1 - MASTER - 45-49

 Place Points NameCity, StateTime USAC #BibTeam
1411.29ALEX TENO   Chatsworth, CA1:42:44.64 345730  20 PLATINUM PERFORMANCE
2433.33GREG TURNER   Thousand Oaks, CA1:43:42.66 191067  167 TRIPLE THREAT
3455.37ROGER MOORE   Santa Barbara, CA1:47:22.88 24953  19 PLATINUM PERFORMANCE
4477.41GARRY SUMMERS   South Pasadena, CA1:50:13.68 34637  664 BBI-SIC
5TY SWARTZ   1:52:19.46  104 BAGHOUSE/ROCKnROAD
6521.49DAVID SILBERBERG   Canoga Park1:52:44.77 368126  760 OUTER CIRCLE RACING
7543.53RICK MORRIS   Santa Clarita, CA1:53:48.18 25148  272 TEAM BIKE RELIGION/S
8565.57ADAM AUSTIN   Los Angeles, CA1:54:10.51 251417  1224 HELENS 8TH WONDER
9587.61SEAN SMITH   Laguna Niguel, CA1:56:26.13 115418  150 LINKED CYCLING

Men - CAT 1 - MASTER - 50-54

 Place Points NameCity, StateTime USAC #BibTeam
1427.70JOHN BIRON   Newbury Park, CA1:45:48.68 79727  23 PLATINUM PERFORMANCE
2453.56FRANCISCO VIDAL   Newhall, CA1:45:49.09 289756  22 PLATINUM PERFORMANCE
3479.42DAN TURNER   Thousand Oaks, CA1:49:45.93 183734  171 TRIPLE THREAT
4505.28RICHARD KIM   Anaheim Hills, CA1:54:42.91 246854  486 ROKFORM/ROCKnROAD
5531.14ANDY OSBURN   Santa Barbara, CA1:55:54.58 109601  21 PLATINUM PERFORMANCE
6557.00KENNETH HEALY   Santee, CA1:56:20.44 400832  327 B3 BICYLE STUDIO
DNFBobby Langin   Thousand Oaks, CADNF 254985  95 PLATINUM PERFORMANCE
DNFJOHNNY OMARA   Laguna Niguel, CADNF 50872  101 BAGHOUSE/ROCKnROAD
DNFDAVID (TINKER) JUAREZ   Whittier, CADNF 18332  28 SHO-AIR/CANNONDALE

Men - CAT 1 - MASTER - 55-59

 Place Points NameCity, StateTime USAC #BibTeam
1452.97DEAN SWANK   Crestline, CA1:48:14.65 215598  26 PLATINUM PERFORMANCE
2514.38TED WILLIAMS   Solvang, CA1:56:44.95 378923  25 PLATINUM PERFORMANCE
3575.79STEVE SILVA   Goleta, CA2:04:41.80 32669  24 PLATINUM PERFORMANCE

Men - CAT 1 - MASTER - 60-64

 Place Points NameCity, StateTime USAC #BibTeam
1480.54JON MILLER   Newbury Park, CA1:55:26.12 167489  96 PLATINUM PERFORMANCE
2517.03MARK BLAKESLEE   Big Bear City, CA2:16:02.45 334790  190 BEAR VALLEY BIKES
3553.52ERIC LINDHOLM   Woodland Hills, CA2:17:34.42 246120  1189 
4590.01PHILIPPE MINNITI   Canyon Country, CA2:45:40.84 183822  318 TEAM APE
DNFTERRY DAHL   Santa Barbara, CADNF 189437  97 PLATINUM PERFORMANCE

Men - CAT 1 - MASTER - 65-69

 Place Points NameCity, StateTime USAC #BibTeam
1DEAN FERRANDINI   Newhall, CA2:33:33.19 11502  781 
2ROGER SEXTON   Valencia, CA2:59:53.05 142061  580 TEAM APE

Men - CAT 1 - MASTER - 70+

 Place Points NameCity, StateTime USAC #BibTeam
1495.78ROBERT LLAMAS   Montrose, CA2:24:16.29 162224  782 MONTROSE BIKES
2527.19BUZ BROCKWAY   Granada Hills, CA2:33:32.10 86705  1168 
3558.60BRIAN KINIRY   Santa Maria, CA2:43:06.03 101576  306 TEAM APE
4590.01RON RILEY   Aptos, CA3:22:02.40 204167  1128 BIKE STATION APTOS

Men - PRO

 Place Points NameCity, StateTime USAC #BibTeam
1277.02Sid Taberlay   South Pasadena, CA1:32:22.76 279640  10 KENDA H20 OVERDRIVE/
2293.90JASON SIEGLE   Solvang, CA1:35:13.50 193522  680 SDG/FELT
3310.78Cody Kaiser   El Dorado Hills, CA1:37:39.66 202564  1140 MUSCLE MILK/SPECIALI
4327.66RYAN CHANDLER   Saint Helena1:37:40.58 377957  707 SANTA CRUZ/FOX/WTB
5344.54ELLIOT REINECKE   Cardiff, CA1:38:58.09 152470  502 VELO HANGAR/FOCUS BI
6361.42CLINTON CLAASSEN   El Dorado Hills, CA1:40:07.76 278360  517 SANTA CRUZ/FOX
7378.30CHARLES JENKINS   Ridgecrest, CA1:40:08.30 17736  458 KHS/WAR/CYTOMAX
8395.18JOHN NOBIL   La Jolla, CA1:40:17.99 26168  500 BEAR VALLEY BIKES
9412.06NATHAN GUERRA   Oconomowoc, WI1:43:40.04 214936  1165 VISION PRO CYCLING
10SHUN MATSUMOTO   1:43:41.05  1154 JAPAN CYCLING FEDERA
11445.82WAYLON SMITH   Frazier Park, CA1:48:38.41 42824  1158 TREK SOUTHRIDGE
12462.70PAUL FREIWALD   Lake Forest, CA1:49:42.05 12367  13 PIVOT CYCLES
13479.58DEREK HERMON   Big Bear Lake, CA2:03:52.94 15935  52 BEAR VALLEY BIKES
DNFRICHIE TRENT   Boulder, CODNF 345078  1164 MAXXIS/CRANK BROTHER

Men - JUNIOR - 1-10

 Place Points NameCity, StateTime USAC #BibTeam
1540.00DOMINIC TURNER   Thousand Oaks, CA1:15:40.93 331302  187 THRIPLE THREAT CYCLI
2552.50GARETH EATON   Ladera Ranch, CA1:18:08.90 362303  375 ROKFORM/ROCKnROAD
3BLAKE WRAY   1:20:36.06  292 
4LUKE STEFANSKI   1:44:36.32  1176 
5590.00MICAH SANCHEZ   Winchester, CA1:45:04.30 397778  571 

Men - JUNIOR - 11-12

 Place Points NameCity, StateTime USAC #BibTeam
1523.40JAG BARTON   Thousand Oaks, CA1:08:34.52 299371  1056 TRIPLE THREAT
2528.08DYLAN EATON   Ladera Ranch, CA1:11:11.86 362302  515 ROKFORM/ROCKnROAD
3532.76ETHAN SANCHEZ   Winchester, CA1:16:37.99 318040  154 Team Simple Green/Bike Religion
4537.44JACKSON DOOLEY   Anaheim Hills1:19:37.59 366099  258 ROKFORM/ROCKnROAD
5542.12ALEC BURTON   Big Bear Lake, CA1:19:41.17 325546  1141 BEAR VALLEY BIKES
6ZACHARY DINKLAGE   1:21:05.58  1177 
7BEN STEFANSKI   1:23:29.19  1175 
8TREVOR WRIGHT   1:37:59.56  235 

Men - JUNIOR - 13-14

 Place Points NameCity, StateTime USAC #BibTeam
1ZACHARY BURTON   Big Bear Lake, CA1:13:26.37 325542  1142 BEAR VALLEY BIKES
2DAVID DINKLAGE   1:19:57.11  1174 

Women - CAT 3 - SENIOR - 19-29

 Place Points NameCity, StateTime USAC #BibTeam
1JUSTINE JENKINS   1:08:31.03  1206 TREK BIKES OF VENTUR

Women - CAT 3 - MASTER - 30-39

 Place Points NameCity, StateTime USAC #BibTeam
1YENY VERGARA   1:13:59.65  559 
2REBECCA MITCHELL   1:18:02.21  68 BEAR VALLEY BIKES

Women - CAT 3 - MASTER - 40-49

 Place Points NameCity, StateTime USAC #BibTeam
1BARB LEMOINE   1:09:57.61  1197 
2GRACE CHOE   1:21:48.56  1210 

Women - CAT 3 - MASTER - 50+

 Place Points NameCity, StateTime USAC #BibTeam
1FLORA HICKMAN   1:27:35.75  1211 RED ZONE RACING
2JANN BANALES   1:46:05.83  904 

Women - CAT 2 - SENIOR - 19-29

 Place Points NameCity, StateTime USAC #BibTeam
1540.00Julia Gieschen   Solvang, CA2:11:24.54 367211  1218 James Bros. Bikes
2556.67HOLLY BRECK   Santa Ynez, CA2:15:13.52 317802  1225 SC VELO/INCYCLE
3JENNY LANDIS   2:28:03.31  321 
4ASHLEY YOUNG   2:47:46.85  1098 

Women - CAT 2 - MASTER - 30-39

 Place Points NameCity, StateTime USAC #BibTeam
1540.00SHELLY ROLANDSON   Los Angeles, CA2:24:43.10 360756  262 ROKFORM/ROCKnROAD
2SLOANE CLAYTOR   2:30:26.31  1217 
3573.34KRISTEN OSBORN   Redlands, CA2:36:18.72 186670  471 CHAINS REQUIRED
4590.01HEATHER ROSE   Santa Barbara, CA2:44:00.57 236955  1198 

Women - CAT 2 - MASTER - 40-49

 Place Points NameCity, StateTime USAC #BibTeam
1LISA RIVERA   1:08:32.57  867 
2ELIZABETH EATON   1:09:16.64  275 ROKFORM/ROCKnROAD
DNFLEA ADAMS   Newbury Park, CADNF 187180  1184 SC VELO/INCYCLE

Women - CAT 2 - MASTER - 50-64

 Place Points NameCity, StateTime USAC #BibTeam
1CINDY MARNOCH   Canyon Country, CA1:08:52.24 145130  1181 

Women - CAT 1 - JUNIOR - 15-18

 Place Points NameCity, StateTime USAC #BibTeam
1QUINCEE CHANDLER   Salinas, CA1:08:57.06 368988  1195 DOUG CHANDLER PERFOR

Women - CAT 1 - SENIOR - 19-29

 Place Points NameCity, StateTime USAC #BibTeam
1AMANDA NAUMAN   Mission Viejo Ca2:03:48.51 292922  719 
2ESSENCE BARTON   Thousand Oak, CA2:12:45.60 179924  1055 TRIPLE THREAT

Women - CAT 1 - MASTER - 40-49

 Place Points NameCity, StateTime USAC #BibTeam
1540.00ROBIN KAMINSKY   Redondo Beach, CA2:14:13.54 361130  53 BLACK SHEEP SQUADRON
2556.67FIONA PETERSEN   Laguna Niguel, CA2:18:30.67 255240  705 SIMPLE GREEN/CYCLES
3573.34HEIDI BOWEN   Woodland Hills, CA2:18:35.20 190382  1035 MONTROSE BIKE SHOP
4590.01CYNTHIA MIRANDA   Carlsbad, CA2:29:08.37 345710  140 BEAR VALLEY BIKES

Women - PRO

 Place Points NameCity, StateTime USAC #BibTeam
1447.85AMANDA CAREY   Victor, ID1:48:48.14 223212  1171 STANS NO TUBES WOMEN
2506.41LARISSA FITCHETT   Silverado, CA1:53:30.07 274696  511 LOST COAST BREWERY-M
3564.97VANESSA HUMIC   Long Beach, CA2:21:27.87 250250  1058 STANS NO TUBES/KENDA

Mixed - OPEN - TANDEMS

 Place Points NameCity, StateTime USAC #BibTeam
1PHIL KELLY   Simi Valley, CA2:14:12.98 155728  647 
1GINA KELLY   Simi Valley, CA2:14:12.98 310382  647 
2PAUL HERNANDEZ   Baldwin Park, CA3:14:14.80 15947  1002 SOCAL CROSS

Report missing or incorrect license numbers

Volkswagen
USACDFBonk BreakerSpySierra NevadaShimano
UCI USA Cycling is the official governing body for all disciplines of competitive cycling in the United States. The 501c3, membership-based organization aims both to achieve sustained success in international cycling competition and to grow competitive cycling in America while delivering an exceptional customer experience.
View Children's Online Privacy Protection Policy
US Olympic Committee